North Platte, NE

6:58 PM CDT on August 22, 2017 (GMT -0500)
North Platte Regional-Bird

Weather History for KLBF - June, 2013

Change the Weather History Date:

Sunday, June 2, 2013

  Actual Average Record
Temperature  
Mean Temperature 53 °F 63 °F  
Max Temperature 73 °F 77 °F 93 °F (2002)
Min Temperature 33 °F 50 °F 29 °F (1969)
Degree Days  
Heating Degree Days 12 4  
Month to date heating degree days 23 8  
Since 1 June heating degree days 23 8  
Since 1 July heating degree days 6739 6643  
Cooling Degree Days 0 2  
Month to date cooling degree days 0 4  
Year to date cooling degree days 48 32  
Since 1 June cooling degree days 0 4  
Growing Degree Days 3 (Base 50)    
Moisture  
Dew Point 42 °F    
Average Humidity 65    
Maximum Humidity 92    
Minimum Humidity 38    
Precipitation  
Precipitation 0.00 in 0.13 in 2.13 in (2005)
Month to date precipitation T 0.26  
Year to date precipitation 6.16 7.70  
Snow  
Snow 0.00 in 0.00 in 0.00 in (2002)
Month to date snowfall 0.0 0.0  
Since 1 June snowfall 0.0 0.0  
Since 1 July snowfall 30.2 28.5  
Snow Depth 0.00 in    
Sea Level Pressure  
Sea Level Pressure 30.07 in    
Wind  
Wind Speed 7 mph (South)    
Max Wind Speed 16 mph    
Max Gust Speed 22 mph    
Visibility 10 miles    
Events      
T = Trace of Precipitation, MM = Missing Value Source: NWS Daily Summary

Daily Weather History Graph

Daily Weather History Graph

Search for Another Location

Airport or City:

Trip Planner

Search our weather history database for the weather conditions in past years. The results will help you decide how hot, cold, wet, or windy it might be!

Date:

Astronomy

Jun. 02, 2013 Rise Set
Actual Time 6:11 AM CDT 9:10 PM CDT
Civil Twilight 5:38 AM CDT 9:43 PM CDT
Nautical Twilight 4:57 AM CDT 10:25 PM CDT
Astronomical Twilight 4:08 AM CDT 11:14 PM CDT
Moon 2:42 AM CDT (6/2) 3:39 PM CDT (6/2)
Length of Visible Light 16h 04m
Length of Day
14h 58m
Waning Crescent, 30% of the Moon is Illuminated
Jun 2
Waning Crescent
Jun 8
New
Jun 16
First Quarter
Jun 23
Full
Jun 29
Last Quarter

Hourly Weather History & Observations

Time (CDT) Temp. Windchill Dew Point Humidity Pressure Visibility Wind Dir Wind Speed Gust Speed Precip Events Conditions
12:53 AM 46.9 °F - 39.0 °F 74% 30.16 in 10.0 mi Calm Calm - N/A   Clear
1:53 AM 41.0 °F - 37.0 °F 86% 30.17 in 10.0 mi Calm Calm - N/A   Clear
2:53 AM 37.9 °F 33.5 °F 35.1 °F 89% 30.17 in 10.0 mi WSW 5.8 mph - N/A   Clear
3:53 AM 37.0 °F - 35.1 °F 93% 30.17 in 10.0 mi Calm Calm - N/A   Clear
4:53 AM 36.0 °F - 34.0 °F 93% 30.18 in 10.0 mi Calm Calm - N/A   Clear
5:53 AM 33.1 °F 30.0 °F 30.9 °F 92% 30.18 in 10.0 mi NW 3.5 mph - N/A   Clear
6:53 AM 37.0 °F - 35.1 °F 93% 30.17 in 10.0 mi Calm Calm - N/A   Clear
7:53 AM 45.0 °F - 41.0 °F 86% 30.17 in 10.0 mi Calm Calm - N/A   Clear
8:53 AM 51.1 °F - 43.0 °F 74% 30.16 in 10.0 mi West 3.5 mph - N/A   Clear
9:53 AM 57.0 °F - 45.0 °F 64% 30.16 in 10.0 mi SW 4.6 mph - N/A   Clear
10:53 AM 61.0 °F - 44.1 °F 54% 30.13 in 10.0 mi SW 3.5 mph - N/A   Clear
11:53 AM 63.0 °F - 44.1 °F 50% 30.12 in 10.0 mi Variable 4.6 mph - N/A   Clear
12:53 PM 66.9 °F - 45.0 °F 45% 30.09 in 10.0 mi South 4.6 mph - N/A   Clear
1:53 PM 69.1 °F - 46.0 °F 44% 30.06 in 10.0 mi Variable 5.8 mph - N/A   Clear
2:53 PM 72.0 °F - 46.9 °F 41% 30.03 in 10.0 mi South 11.5 mph 16.1 mph N/A   Clear
3:53 PM 72.0 °F - 48.0 °F 43% 30.01 in 10.0 mi South 11.5 mph - N/A   Clear
4:53 PM 73.0 °F - 46.9 °F 39% 29.99 in 10.0 mi SSE 13.8 mph 18.4 mph N/A   Clear
5:53 PM 73.0 °F - 48.0 °F 41% 29.98 in 10.0 mi SSE 8.1 mph - N/A   Clear
6:53 PM 72.0 °F - 46.9 °F 41% 29.94 in 10.0 mi SE 12.7 mph - N/A   Clear
7:53 PM 69.1 °F - 46.9 °F 45% 29.91 in 10.0 mi SE 12.7 mph - N/A   Clear
8:53 PM 66.0 °F - 46.0 °F 48% 29.89 in 10.0 mi SE 9.2 mph - N/A   Clear
9:53 PM 62.1 °F - 46.0 °F 56% 29.90 in 10.0 mi SE 9.2 mph - N/A   Clear
10:53 PM 60.1 °F - 45.0 °F 57% 29.91 in 10.0 mi SE 11.5 mph - N/A   Clear
11:53 PM 57.9 °F - 44.1 °F 60% 29.91 in 10.0 mi SE 10.4 mph - N/A   Clear